This demonstration page uses our WeatherBlox Daily Observations layout. Learn more.

Left ArrowRight Arrow

53.62937, 11.41316

Hourly Observations for January 15, 2020

Temp ( °F °C ) Dew Point ( °F °C ) Humidity (%) Winds ( mph kmh ) Pressure ( in mb ) Visibility ( mi km ) Precip ( " mm )
6:50 am 06:50 Mostly Clear 54 12 45 7 72 72 SW 15 24 29.71 1006 30 48 N/A
7:20 am 07:20 Mostly Clear 54 12 45 7 72 72 SW 15 24 29.71 1006 30 48 N/A
7:50 am 07:50 Mostly Clear 54 12 43 6 67 67 SW 14 22 29.71 1006 30 48 N/A
8:20 am 08:20 Mostly Clear 54 12 43 6 67 67 SSW 13 20 29.71 1006 30 48 N/A
8:50 am 08:50 Mostly Sunny 52 11 43 6 72 72 SSW 13 20 29.74 1007 30 48 N/A
9:20 am 09:20 Mostly Sunny 52 11 43 6 72 72 SSW 14 22 29.74 1007 7 11 N/A
9:50 am 09:50 Mostly Sunny 54 12 43 6 67 67 SW 14 22 29.74 1007 7 11 N/A
10:20 am 10:20 Mostly Sunny 54 12 43 6 67 67 SSW 16 26 29.77 1008 30 48 N/A
10:50 am 10:50 Mostly Sunny 55 13 43 6 63 63 SSW 15 24 29.77 1008 7 11 N/A
11:20 am 11:20 Mostly Sunny 55 13 43 6 63 63 SW 16 26 29.77 1008 7 11 N/A
11:50 am 11:50 Mostly Sunny 55 13 43 6 63 63 SSW 16 26 29.77 1008 30 48 N/A
12:20 pm 12:20 Mostly Sunny 55 13 41 5 59 59 SSW 15 24 29.77 1008 30 48 N/A
12:50 pm 12:50 Mostly Sunny 55 13 43 6 63 63 SSW 17 28 29.77 1008 30 48 N/A
1:20 pm 13:20 Mostly Sunny 57 14 43 6 59 59 SSW 16 26 29.77 1008 7 11 N/A
1:50 pm 13:50 Mostly Sunny 57 14 41 5 55 55 SW 16 26 29.77 1008 30 48 N/A
2:20 pm 14:20 Mostly Sunny 55 13 41 5 59 59 SSW 14 22 29.77 1008 30 48 N/A
2:50 pm 14:50 Partly Cloudy 55 13 41 5 59 59 SSW 15 24 29.77 1008 30 48 N/A
3:20 pm 15:20 Mostly Sunny 55 13 41 5 59 59 SSW 15 24 29.77 1008 30 48 N/A
3:50 pm 15:50 Mostly Sunny 55 13 41 5 59 59 SSW 13 20 29.77 1008 7 11 N/A
4:20 pm 16:20 Mostly Sunny 55 13 41 5 59 59 SSW 14 22 29.77 1008 7 11 N/A
4:50 pm 16:50 Mostly Clear 55 13 41 5 59 59 SSW 12 19 29.80 1009 7 11 N/A
5:20 pm 17:20 Mostly Clear 55 13 41 5 59 59 SSW 15 24 29.80 1009 7 11 N/A
5:50 pm 17:50 Mostly Clear 54 12 41 5 63 63 SW 15 24 29.80 1009 7 11 N/A
6:20 pm 18:20 Mostly Clear 54 12 39 4 58 58 SW 14 22 29.80 1009 30 48 N/A
6:50 pm 18:50 Partly Cloudy 54 12 39 4 58 58 SW 17 28 29.83 1010 30 48 N/A
7:20 pm 19:20 Mostly Cloudy 55 13 39 4 55 55 SW 16 26 29.83 1010 30 48 N/A
7:50 pm 19:50 Mostly Cloudy 54 12 41 5 63 63 SW 21 33 29.83 1010 30 48 N/A

Powered by AerisWeather